This demonstration page uses our WeatherBlox Daily Observations layout. Learn more.

Left ArrowRight Arrow

34.02893, -84.19858

Hourly Observations for July 20, 2018

Temp ( °F °C ) Dew Point ( °F °C ) Humidity (%) Winds ( mph kmh ) Pressure ( in mb ) Visibility ( mi km ) Precip ( " mm )
12:53 am 00:53 Partly Cloudy 75 23.9 71 21.7 88 88 E 3 6 29.96 1014 10 16 0.00 0.00
1:13 am 01:13 Mostly Cloudy 75 23.9 71 21.7 88 88 Calm 29.97 1015 10 16 0.00 0.00
1:53 am 01:53 Cloudy 75 23.9 71 21.7 88 88 VRB 5 7 29.95 1014 10 16 0.00 0.00
2:17 am 02:17 Cloudy 74 23.3 71 21.7 91 91 VRB 5 7 29.97 1015 10 16 0.00 0.00
2:53 am 02:53 Mostly Cloudy 74 23.3 71 21.7 91 91 VRB 5 7 29.93 1014 10 16 0.00 0.00
3:08 am 03:08 Mostly Cloudy 74 23.3 71 21.7 91 91 E 5 7 29.97 1015 10 16 0.00 0.00
3:26 am 03:26 Cloudy 74 23.3 71 21.7 91 91 VRB 3 6 29.97 1015 10 16 0.00 0.00
3:53 am 03:53 Cloudy 73 22.8 71 21.7 94 94 VRB 7 11 29.92 1013 10 16 0.00 0.00
4:53 am 04:53 Cloudy 73 22.8 71 21.7 94 94 VRB 3 6 29.92 1013 10 16 0.00 0.00
5:05 am 05:05 Cloudy 73 22.8 71 21.7 94 94 E 6 9 29.94 1014 10 16 0.00 0.00
5:41 am 05:41 Cloudy 74 23.3 70 21.1 88 88 VRB 3 6 29.94 1014 10 16 0.00 0.00
5:53 am 05:53 Cloudy 74 23.3 70 21.1 88 88 ENE 6 9 29.93 1013 10 16 0.00 0.00
6:53 am 06:53 Cloudy 74 23.3 70 21.1 88 88 VRB 3 6 29.94 1014 10 16 0.00 0.00
7:09 am 07:09 Cloudy 74 23.3 70 21.1 88 88 Calm 29.97 1015 10 16 0.00 0.00
7:53 am 07:53 Cloudy 74 23.3 69 20.6 85 85 undefined N/A 29.98 1015 10 16 0.00 0.00
8:30 am 08:30 Cloudy 74 23.3 70 21.1 88 88 VRB 6 9 30.00 1016 10 16 0.00 0.00
8:32 am 08:32 Cloudy 74 23.3 70 21.1 88 88 ENE 6 9 30.00 1016 10 16 0.00 0.00
8:53 am 08:53 Cloudy 74 23.3 69 20.6 85 85 VRB 3 6 29.99 1016 10 16 0.00 0.00
9:00 am 09:00 Cloudy 75 23.9 70 21.1 84 84 E 9 15 30.00 1016 10 16 0.00 0.00
9:53 am 09:53 Cloudy 78 25.6 70 21.1 76 76 VRB 7 11 29.99 1016 10 16 0.00 0.00
10:53 am 10:53 Cloudy 77 25 70 21.1 79 79 undefined N/A 30.00 1016 10 16 0.00 0.00
11:09 am 11:09 Cloudy 78 25.6 70 21.1 76 76 ESE 7 11 30.00 1016 10 16 0.00 0.00
11:38 am 11:38 Cloudy 79 26.1 70 21.1 74 74 ESE 7 11 30.00 1016 10 16 0.00 0.00
11:53 am 11:53 Cloudy 79 26.1 70 21.1 74 74 ESE 7 11 29.99 1016 10 16 0.00 0.00
12:53 pm 12:53 Mostly Cloudy 82 27.8 69 20.6 65 65 VRB 5 7 29.98 1015 10 16 0.00 0.00
1:00 pm 13:00 Mostly Cloudy 82 27.8 69 20.6 65 65 VRB 6 9 29.97 1015 10 16 0.00 0.00
1:53 pm 13:53 Partly Cloudy 82 27.8 68 20 63 63 VRB 6 9 29.97 1015 10 16 0.00 0.00
2:53 pm 14:53 Cloudy 82 27.8 67 19.4 60 60 ESE 6 9 29.96 1014 10 16 0.00 0.00
3:53 pm 15:53 Mostly Cloudy 82 27.8 68 20 63 63 E 5 7 29.94 1014 10 16 0.00 0.00
4:53 pm 16:53 Mostly Sunny 83 28.3 68 20 61 61 VRB 3 6 29.91 1013 10 16 0.00 0.00
5:53 pm 17:53 Partly Cloudy 86 30 68 20 55 55 VRB 3 6 29.91 1013 10 16 0.00 0.00
6:53 pm 18:53 Mostly Sunny 84 28.9 69 20.6 61 61 E 5 7 29.90 1013 10 16 0.00 0.00
7:53 pm 19:53 Sunny 82 27.8 69 20.6 65 65 Calm 29.91 1013 10 16 0.00 0.00
8:53 pm 20:53 Clear 79 26.1 69 20.6 72 72 SE 3 6 29.91 1013 10 16 0.00 0.00
9:53 pm 21:53 Clear 76 24.4 69 20.6 79 79 SSE 3 6 29.91 1013 10 16 0.00 0.00
10:53 pm 22:53 Clear 74 23.3 70 21.1 88 88 Calm 29.94 1014 10 16 0.00 0.00
11:53 pm 23:53 Clear 73 22.8 70 21.1 90 90 SE 3 6 29.93 1014 10 16 0.00 0.00

Powered by AerisWeather